Weather History for Gwinner, ND

Change the Weather History Date:

Monday, January 21, 2013

  Actual Average (KP67) Record (KP67)
Temperature  
Mean Temperature -2 °F -  
Max Temperature 5 °F 13 °F 32 °F (1997)
Min Temperature -9 °F 0 °F 9 °F (1998)
Degree Days  
Heating Degree Days 67    
Moisture  
Dew Point -14 °F    
Average Humidity 61    
Maximum Humidity 71    
Minimum Humidity 52    
Precipitation  
Precipitation 0.00 in - - ()
Sea Level Pressure  
Sea Level Pressure 30.32 in    
Wind  
Wind Speed 13 mph (WNW)    
Max Wind Speed 20 mph    
Max Gust Speed 25 mph    
Visibility 10 miles    
Events      
Averages and records for this station are not official NWS values.
T = Trace of Precipitation, MM = Missing Value Source: NWS Daily Summary

Daily Weather History Graph

Daily Weather History Graph

Search for Another Location

Airport:

Trip Planner

Search our weather history database for the weather conditions in past years. The results will help you decide how hot, cold, wet, or windy it might be!

Date:

Astronomy

Jan. 21, 2013 Rise Set
Actual Time 8:04 AM CST 5:19 PM CST
Civil Twilight 7:31 AM CST 5:52 PM CST
Nautical Twilight 6:54 AM CST 6:29 PM CST
Astronomical Twilight 6:19 AM CST 7:05 PM CST
Moon 12:59 PM CST (1/21) 3:34 AM CST (1/21)
Length of Visible Light 10h 21m
Length of Day
9h 15m
Waxing Gibbous, 75% of the Moon is Illuminated
Jan 21
Waxing Gibbous
Jan 26
Full
Feb 3
Last Quarter
Feb 10
New
Feb 17
First Quarter

Hourly Weather History & Observations

Time (CST) Temp. Windchill Dew Point Humidity Pressure Visibility Wind Dir Wind Speed Gust Speed Precip Events Conditions
12:15 AM -7.6 °F -29.8 °F -18.4 °F 59% 30.38 in 10.0 mi WNW 16.1 mph 21.9 mph 0.00 in   Clear
12:35 AM -7.6 °F -28.3 °F -18.4 °F 59% 30.37 in 10.0 mi WNW 13.8 mph 19.6 mph 0.00 in   Clear
12:55 AM -7.6 °F -29.1 °F -18.4 °F 59% 30.37 in 10.0 mi WNW 15.0 mph - 0.00 in   Clear
1:15 AM -7.6 °F -27.5 °F -18.4 °F 59% 30.37 in 10.0 mi WNW 12.7 mph - 0.00 in   Clear
1:35 AM -7.6 °F -29.8 °F -18.4 °F 59% 30.37 in 10.0 mi WNW 16.1 mph - 0.00 in   Clear
1:55 AM -7.6 °F -27.5 °F -18.4 °F 59% 30.38 in 10.0 mi WNW 12.7 mph - 0.00 in   Clear
2:15 AM -7.6 °F -25.7 °F -18.4 °F 59% 30.38 in 10.0 mi WNW 10.4 mph 16.1 mph 0.00 in   Clear
2:35 AM -7.6 °F -29.1 °F -18.4 °F 59% 30.38 in 10.0 mi NW 15.0 mph - 0.00 in   Clear
2:55 AM -7.6 °F -25.7 °F -18.4 °F 59% 30.38 in 10.0 mi WNW 10.4 mph - 0.00 in   Clear
3:15 AM -9.4 °F -27.9 °F -18.4 °F 65% 30.38 in 10.0 mi NW 10.4 mph - 0.00 in   Clear
3:35 AM -9.4 °F -26.8 °F -18.4 °F 65% 30.38 in 10.0 mi WNW 9.2 mph - 0.00 in   Clear
3:55 AM -9.4 °F -26.8 °F -18.4 °F 65% 30.37 in 10.0 mi WNW 9.2 mph - 0.00 in   Clear
4:15 AM -9.4 °F -30.6 °F -18.4 °F 65% 30.36 in 10.0 mi WNW 13.8 mph - 0.00 in   Clear
4:35 AM -9.4 °F -28.9 °F -18.4 °F 65% 30.36 in 10.0 mi WNW 11.5 mph - 0.00 in   Clear
4:55 AM -9.4 °F -29.8 °F -18.4 °F 65% 30.35 in 10.0 mi WNW 12.7 mph - 0.00 in   Clear
5:15 AM -9.4 °F -31.4 °F -18.4 °F 65% 30.35 in 10.0 mi WNW 15.0 mph 18.4 mph 0.00 in   Clear
5:55 AM -9.4 °F -30.6 °F -18.4 °F 65% 30.34 in 10.0 mi WNW 13.8 mph - 0.00 in   Clear
6:15 AM -9.4 °F -28.9 °F -18.4 °F 65% 30.34 in 10.0 mi WNW 11.5 mph 17.3 mph 0.00 in   Clear
6:35 AM -9.4 °F -30.6 °F -18.4 °F 65% 30.34 in 10.0 mi WNW 13.8 mph - 0.00 in   Clear
6:55 AM -9.4 °F -30.6 °F -18.4 °F 65% 30.34 in 10.0 mi WNW 13.8 mph - 0.00 in   Clear
7:15 AM -9.4 °F -31.4 °F -18.4 °F 65% 30.33 in 10.0 mi WNW 15.0 mph - 0.00 in   Clear
7:35 AM -9.4 °F -30.6 °F -18.4 °F 65% 30.33 in 10.0 mi WNW 13.8 mph - 0.00 in   Clear
7:55 AM -9.4 °F -28.9 °F -18.4 °F 65% 30.33 in 10.0 mi WNW 11.5 mph - 0.00 in   Clear
8:15 AM -9.4 °F -30.6 °F -18.4 °F 65% 30.34 in 10.0 mi WNW 13.8 mph - 0.00 in   Clear
8:35 AM -7.6 °F -29.1 °F -18.4 °F 59% 30.34 in 10.0 mi WNW 15.0 mph - 0.00 in   Clear
8:55 AM -7.6 °F -26.6 °F -18.4 °F 59% 30.34 in 10.0 mi WNW 11.5 mph 19.6 mph 0.00 in   Clear
9:15 AM -7.6 °F -29.1 °F -18.4 °F 59% 30.35 in 10.0 mi WNW 15.0 mph - 0.00 in   Clear
9:35 AM -7.6 °F -29.8 °F -16.6 °F 65% 30.35 in 10.0 mi WNW 16.1 mph 20.7 mph 0.00 in   Clear
9:55 AM -5.8 °F -27.5 °F -16.6 °F 60% 30.35 in 10.0 mi WNW 16.1 mph 21.9 mph 0.00 in   Clear
10:15 AM -5.8 °F -25.2 °F -16.6 °F 60% 30.36 in 10.0 mi NW 12.7 mph 21.9 mph 0.00 in   Clear
10:35 AM -5.8 °F -28.8 °F -16.6 °F 60% 30.35 in 10.0 mi NW 18.4 mph - 0.00 in   Clear
10:55 AM -4.0 °F -23.0 °F -14.8 °F 60% 30.35 in 10.0 mi WNW 12.7 mph 20.7 mph 0.00 in   Clear
11:15 AM -2.2 °F -22.9 °F -14.8 °F 55% 30.34 in 10.0 mi NW 16.1 mph - 0.00 in   Clear
11:35 AM -2.2 °F -22.2 °F -14.8 °F 55% 30.34 in 10.0 mi WNW 15.0 mph 19.6 mph 0.00 in   Clear
11:55 AM -0.4 °F -20.5 °F -13.0 °F 55% 30.32 in 10.0 mi WNW 16.1 mph 20.7 mph 0.00 in   Clear
12:15 PM -0.4 °F -21.2 °F -13.0 °F 55% 30.31 in 10.0 mi WNW 17.3 mph 21.9 mph 0.00 in   Clear
12:35 PM 1.4 °F -17.6 °F -11.2 °F 56% 30.30 in 10.0 mi West 15.0 mph - 0.00 in   Clear
12:55 PM 1.4 °F -18.2 °F - N/A% 30.29 in 10.0 mi WNW 16.1 mph - 0.00 in   Clear
1:15 PM 1.4 °F -17.6 °F -11.2 °F 56% 30.29 in 10.0 mi WNW 15.0 mph 23.0 mph 0.00 in   Clear
1:35 PM 3.2 °F -15.9 °F -9.4 °F 56% 30.28 in 10.0 mi WNW 16.1 mph - 0.00 in   Clear
1:55 PM 3.2 °F -17.1 °F -9.4 °F 56% 30.27 in 10.0 mi WNW 18.4 mph 21.9 mph 0.00 in   Clear
2:15 PM 3.2 °F -17.6 °F -9.4 °F 56% 30.27 in 10.0 mi WNW 19.6 mph 24.2 mph 0.00 in   Clear
2:35 PM 5.0 °F -14.7 °F -7.6 °F 56% 30.27 in 10.0 mi WNW 18.4 mph - 0.00 in   Clear
2:55 PM 5.0 °F -13.0 °F -7.6 °F 56% 30.27 in 10.0 mi WNW 15.0 mph 21.9 mph 0.00 in   Clear
3:15 PM 5.0 °F -15.2 °F -7.6 °F 56% 30.27 in 10.0 mi WNW 19.6 mph - 0.00 in   Clear
3:35 PM 5.0 °F -14.2 °F -7.6 °F 56% 30.27 in 10.0 mi WNW 17.3 mph - 0.00 in   Clear
3:55 PM 5.0 °F -15.2 °F -7.6 °F 56% 30.27 in 10.0 mi NW 19.6 mph 25.3 mph 0.00 in   Clear
4:15 PM 5.0 °F -14.2 °F -7.6 °F 56% 30.27 in 10.0 mi WNW 17.3 mph - 0.00 in   Clear
4:35 PM 5.0 °F -13.6 °F -9.4 °F 52% 30.27 in 10.0 mi NW 16.1 mph - 0.00 in   Clear
4:55 PM 3.2 °F -14.6 °F -9.4 °F 56% 30.27 in 10.0 mi NW 13.8 mph - 0.00 in   Clear
5:15 PM 3.2 °F -14.6 °F -9.4 °F 56% 30.27 in 10.0 mi NW 13.8 mph - 0.00 in   Clear
5:35 PM 3.2 °F -12.2 °F -9.4 °F 56% 30.27 in 10.0 mi WNW 10.4 mph - 0.00 in   Clear
5:55 PM 1.4 °F -16.1 °F -9.4 °F 61% 30.27 in 10.0 mi WNW 12.7 mph - 0.00 in   Clear
6:15 PM 1.4 °F -13.5 °F -9.4 °F 61% 30.27 in 10.0 mi WNW 9.2 mph - 0.00 in   Clear
6:35 PM 1.4 °F -12.5 °F -9.4 °F 61% 30.27 in 10.0 mi WNW 8.1 mph - 0.00 in   Clear
6:55 PM -0.4 °F -13.4 °F -9.4 °F 66% 30.28 in 10.0 mi WNW 6.9 mph - 0.00 in   Clear
7:15 PM -0.4 °F -12.0 °F - N/A% 30.28 in 10.0 mi West 5.8 mph - 0.00 in   Clear
7:35 PM -2.2 °F -10.4 °F -11.2 °F 66% 30.28 in 10.0 mi West 3.5 mph - 0.00 in   Clear
7:55 PM -4.0 °F -17.8 °F -11.2 °F 71% 30.28 in 10.0 mi West 6.9 mph - 0.00 in   Clear
8:15 PM -4.0 °F -19.0 °F -13.0 °F 65% 30.28 in 10.0 mi West 8.1 mph - 0.00 in   Clear
8:35 PM -4.0 °F -19.0 °F -13.0 °F 65% 30.28 in 10.0 mi West 8.1 mph - 0.00 in   Clear
8:55 PM -4.0 °F -17.8 °F -13.0 °F 65% 30.27 in 10.0 mi West 6.9 mph - 0.00 in   Clear
9:15 PM -4.0 °F -20.2 °F -13.0 °F 65% 30.28 in 10.0 mi West 9.2 mph - 0.00 in   Clear
9:35 PM -4.0 °F -21.2 °F -13.0 °F 65% 30.28 in 10.0 mi West 10.4 mph - 0.00 in   Clear
9:55 PM -4.0 °F -21.2 °F -13.0 °F 65% 30.28 in 10.0 mi West 10.4 mph - 0.00 in   Clear
10:15 PM -4.0 °F -19.0 °F -13.0 °F 65% 30.29 in 10.0 mi West 8.1 mph - 0.00 in   Clear
10:35 PM -2.2 °F -16.8 °F -11.2 °F 66% 30.29 in 10.0 mi WNW 8.1 mph - 0.00 in   Clear
10:55 PM -2.2 °F -18.9 °F -11.2 °F 66% 30.29 in 10.0 mi NW 10.4 mph - 0.00 in   Clear
11:15 PM -2.2 °F -18.0 °F -11.2 °F 66% 30.29 in 10.0 mi WNW 9.2 mph - 0.00 in   Clear
11:35 PM -2.2 °F -19.9 °F -11.2 °F 66% 30.29 in 10.0 mi WNW 11.5 mph - 0.00 in   Clear
11:55 PM -2.2 °F -20.7 °F -13.0 °F 60% 30.29 in 10.0 mi NW 12.7 mph - 0.00 in   Clear